Theta_e
349 341 339 339 338 336 329 328 326 325 325 329 337 340 341 341 342 341 341 341 340 340 339 338 337 336 336 335 333 332 329 321 315 316 317 319 321 325 329 328 324 317 310 309 310 310 310 309 308 308 308 308 308 309 309 310 310 310 311 316 327 332 333 333 333 332 332 331 331 332 333 334 334 334 335 335 336 336 335 336 336 335 335 335 335
348 341 339 338 338 336 330 328 326 325 324 325 332 338 340 340 341 341 341 340 340 340 339 339 338 337 336 335 333 331 330 324 318 315 317 322 326 328 327 321 317 313 309 309 310 309 309 308 309 308 308 308 308 308 308 309 310 310 310 313 321 328 331 333 332 331 331 331 331 332 333 334 334 334 335 335 336 335 336 336 336 336 336 335 334
346 341 339 338 337 335 331 328 326 326 325 323 326 333 337 339 340 340 340 339 339 339 339 338 337 337 336 335 333 330 329 326 320 316 316 324 328 327 322 315 311 309 309 309 310 309 309 309 308 309 310 309 307 308 308 308 309 310 310 311 314 320 327 331 331 331 330 329 330 331 331 332 333 333 334 335 335 336 336 336 336 336 335 335 334
345 340 339 338 336 334 331 329 327 326 327 326 323 325 331 337 339 339 339 339 339 338 338 338 338 337 336 335 332 330 328 326 321 316 316 322 326 325 320 316 311 309 310 309 309 309 309 309 309 311 312 310 309 308 307 308 308 309 310 310 311 315 321 326 330 330 328 327 327 329 329 329 330 332 333 334 335 336 336 336 336 334 332 331 330
344 340 339 337 334 332 331 329 327 327 329 327 323 321 323 330 336 338 339 339 339 338 338 338 338 336 334 332 330 328 326 325 320 316 319 325 328 326 319 316 313 310 311 311 311 312 312 312 312 315 314 312 311 309 308 308 307 308 309 310 311 312 315 321 328 328 326 329 330 331 331 329 329 330 332 333 334 335 335 335 334 332 330 327 325
344 340 338 336 333 331 331 329 326 328 330 327 323 321 319 323 331 336 338 338 338 338 338 338 336 332 329 327 326 324 323 322 320 319 323 329 333 333 323 315 317 317 314 313 313 314 316 316 316 317 314 313 313 311 309 309 308 307 308 310 310 311 312 316 324 324 323 329 331 331 332 331 331 330 330 330 332 333 333 333 332 329 327 323 320
344 340 338 335 332 329 329 328 326 329 330 327 325 321 319 319 325 333 336 338 338 338 337 335 330 327 326 325 324 324 324 321 321 324 326 331 334 337 329 317 321 321 318 319 321 320 322 322 319 318 315 314 314 312 312 311 309 308 307 308 309 310 311 312 318 319 322 330 331 330 332 332 332 331 327 326 328 330 330 330 330 326 322 320 317
343 341 340 337 333 330 328 327 326 329 329 328 326 323 320 318 321 329 335 336 337 337 334 330 326 327 328 329 331 332 334 330 328 327 329 333 333 335 331 323 326 326 326 330 330 327 326 324 319 318 316 315 315 314 314 313 311 310 308 308 309 310 310 311 313 314 322 330 330 330 331 330 331 330 325 323 325 327 327 327 328 324 319 317 316
343 342 342 340 335 331 328 325 326 329 329 328 327 325 321 319 319 325 331 334 334 333 330 327 328 331 334 335 338 338 339 337 333 326 327 332 332 333 328 327 332 331 332 334 332 327 324 322 320 319 317 316 315 314 314 314 313 313 310 308 308 308 310 310 311 317 324 326 328 330 330 331 330 327 321 320 322 322 323 322 323 320 317 317 315
343 342 343 341 336 333 328 325 327 329 329 328 328 325 322 320 321 324 328 330 331 330 328 328 331 334 337 338 339 339 339 338 336 329 324 326 331 332 327 330 335 333 332 333 331 325 323 322 321 320 318 317 315 314 314 314 314 314 313 311 309 308 309 309 314 322 325 323 324 324 324 328 327 320 315 315 318 319 319 317 317 317 316 315 315
343 343 343 341 336 334 330 326 328 329 330 329 328 325 322 321 322 325 327 328 328 329 329 329 332 335 336 338 339 339 339 337 335 331 324 324 330 329 329 333 334 332 332 333 330 323 323 323 322 322 319 317 316 315 314 313 313 314 313 313 311 310 310 311 320 326 325 320 317 318 319 322 318 312 311 311 313 315 316 314 314 315 314 314 313
344 343 342 340 336 334 331 327 328 330 330 329 328 326 323 321 321 325 326 327 328 329 331 331 332 334 335 336 337 337 337 333 331 331 326 324 328 327 330 333 331 332 332 332 329 322 322 323 322 322 320 318 318 316 314 313 313 313 313 314 313 313 311 311 322 327 324 323 325 328 325 319 313 309 310 310 311 312 312 312 311 312 312 311 311
344 343 342 339 335 333 330 327 327 329 330 329 329 326 325 323 320 321 324 327 328 330 332 333 332 333 334 333 334 334 333 331 330 331 328 323 324 327 331 332 331 332 332 332 330 323 322 323 324 323 321 320 319 317 315 313 312 313 312 314 313 313 313 313 322 324 323 327 330 328 319 313 310 308 310 309 309 309 309 309 309 309 309 309 309
344 343 341 337 335 333 329 327 327 329 330 330 329 327 327 325 321 319 320 323 325 330 333 333 333 333 332 332 332 331 330 331 332 331 327 322 321 327 331 332 332 332 331 332 330 324 322 323 324 324 323 322 322 319 317 316 313 314 313 314 313 314 313 313 320 320 319 324 326 323 313 308 309 309 309 309 309 308 308 309 309 309 308 309 309
344 343 340 336 337 336 329 326 327 329 330 330 329 328 327 326 325 322 321 322 324 329 332 333 334 332 330 331 330 329 331 332 332 330 328 323 320 325 332 333 332 331 331 331 329 324 323 322 323 325 324 325 324 321 319 319 316 315 315 314 314 314 315 319 321 318 318 322 325 322 312 308 309 309 309 309 310 309 309 309 309 309 309 309 309
344 342 339 337 338 336 330 327 327 328 330 330 330 329 328 327 326 325 324 324 325 328 331 332 331 330 328 327 326 326 330 332 332 331 330 329 324 323 328 333 332 331 330 329 327 323 323 321 322 324 325 326 326 323 322 321 320 318 317 316 316 315 315 320 321 319 322 326 327 321 310 308 309 308 309 309 309 309 310 310 310 309 309 309 309
343 341 339 337 338 336 333 332 329 328 330 330 330 331 330 328 327 326 326 326 326 327 329 329 328 327 326 325 324 325 329 330 330 330 330 332 331 325 324 330 331 330 329 327 325 324 323 320 321 323 325 326 326 326 325 324 323 321 321 319 317 317 315 317 319 320 321 324 329 324 313 309 308 308 308 308 309 309 310 309 309 309 309 309 309
341 339 339 338 338 337 336 335 331 331 333 332 332 332 330 329 327 326 327 327 327 327 328 328 327 326 324 323 322 325 329 330 329 329 329 331 332 328 324 326 328 327 327 325 325 324 322 321 321 322 324 326 326 326 326 326 325 325 324 322 320 318 315 318 320 317 314 323 328 320 311 309 308 309 307 307 307 308 308 309 309 309 309 309 309
340 339 339 339 338 338 338 335 332 334 334 334 334 333 332 331 327 325 326 328 327 328 327 326 326 324 324 324 322 324 328 329 329 328 329 330 329 329 326 323 324 324 325 325 324 324 323 323 323 323 324 325 326 325 326 327 326 327 325 325 324 320 319 325 326 321 319 325 324 313 309 311 309 309 308 307 307 307 308 308 308 308 308 308 308
339 338 339 339 338 340 340 337 335 335 334 335 335 334 333 331 327 323 324 327 327 327 326 327 326 326 326 328 327 328 329 329 329 329 330 331 331 331 330 327 323 322 323 324 324 324 325 326 326 326 326 327 328 326 326 326 327 327 327 326 325 325 326 328 328 326 323 323 319 313 311 311 310 310 309 308 307 307 307 307 307 308 308 308 308
339 338 339 340 340 340 341 338 337 335 334 335 336 335 334 331 328 324 324 326 327 327 329 330 329 328 329 330 331 331 330 329 330 330 331 332 333 333 334 333 329 325 322 322 325 326 327 327 327 327 327 329 329 328 328 327 327 327 328 326 325 329 329 328 329 328 326 323 318 315 313 312 311 310 309 309 308 308 307 307 306 307 307 308 308
339 339 339 340 340 340 341 339 338 336 334 335 335 335 334 332 329 327 327 328 329 330 332 333 331 330 331 332 332 332 331 330 331 331 331 332 333 333 334 333 332 329 322 319 322 325 326 327 327 327 327 329 330 330 330 329 329 329 329 327 327 330 328 328 331 330 329 327 320 318 317 314 312 311 310 310 309 309 308 307 306 306 306 307 307
340 340 340 339 339 340 340 340 338 336 335 335 335 334 334 332 328 329 329 330 332 333 334 334 332 331 333 334 334 334 333 330 330 331 331 331 331 331 329 326 326 326 323 319 319 321 325 327 328 327 327 328 329 330 331 331 330 329 329 329 330 330 326 328 332 332 331 329 324 321 319 317 315 313 311 310 310 309 309 308 307 306 306 306 306
340 340 340 339 339 340 340 340 339 336 337 337 335 335 334 331 328 330 331 331 333 334 334 334 333 333 334 334 334 335 333 329 328 327 326 326 325 322 320 318 318 322 322 321 320 320 322 324 325 326 327 329 329 330 332 332 331 330 330 330 331 329 326 329 332 332 331 330 328 325 323 320 319 316 314 312 311 310 309 309 308 307 306 306 305
340 340 340 339 340 340 339 340 339 338 338 336 336 336 334 332 330 331 333 333 334 334 333 333 335 334 332 332 332 333 334 332 330 330 327 324 321 320 320 318 317 317 318 320 321 320 322 323 322 325 328 330 331 331 332 331 330 330 331 332 331 329 328 330 331 331 330 329 328 328 326 324 321 319 317 315 313 311 310 309 308 307 307 306 306
340 340 340 339 339 339 339 340 340 340 339 336 336 335 333 333 331 330 332 333 334 333 332 334 335 332 332 333 332 333 335 334 334 334 331 328 326 325 325 323 320 318 319 322 322 321 323 322 324 328 330 330 331 331 331 331 330 329 332 332 331 331 331 332 330 330 329 328 329 329 327 326 324 322 320 318 316 313 311 310 309 308 308 307 307
340 340 340 339 338 339 339 340 340 341 340 338 336 335 333 333 330 329 331 332 334 334 333 335 334 332 332 332 332 334 336 334 333 333 331 329 329 328 326 325 323 322 324 325 322 321 320 320 325 329 330 330 330 330 330 330 330 330 332 333 332 332 332 332 331 330 329 327 329 329 327 327 325 324 322 320 317 314 313 312 310 309 309 308 307
340 340 341 339 338 339 340 340 340 340 340 339 337 335 334 332 329 330 333 333 334 334 334 335 334 332 330 329 331 334 335 333 332 332 330 328 328 328 328 326 325 324 325 326 323 322 321 321 324 327 329 330 329 329 330 330 330 331 332 334 333 333 332 332 331 330 331 330 330 329 327 327 326 325 324 322 319 317 315 313 312 311 310 309 308
339 339 340 338 337 338 339 340 340 339 340 339 337 337 335 330 328 331 333 333 335 335 335 336 334 332 329 328 330 332 333 332 332 332 329 327 327 327 327 326 326 325 325 325 324 324 323 322 323 327 329 330 329 329 330 330 329 331 333 333 334 334 333 332 331 331 333 333 331 329 327 327 327 325 324 323 321 318 316 314 313 311 310 310 309
338 338 337 336 337 337 337 338 339 340 339 338 336 336 334 329 329 331 332 334 336 335 335 336 335 331 329 328 330 332 332 331 330 330 329 329 329 329 328 326 326 326 326 325 325 325 325 324 326 330 330 330 330 328 329 330 330 331 332 333 334 334 334 333 333 333 334 334 332 330 328 328 328 326 324 324 323 321 318 316 313 312 312 313 312
338 337 336 335 335 337 337 336 338 338 337 337 336 335 333 330 330 331 333 335 335 334 335 336 334 331 328 329 332 332 330 328 329 329 330 331 330 330 330 329 327 327 328 327 327 328 326 326 327 329 330 330 330 328 329 331 331 331 332 333 334 334 334 334 334 333 334 333 332 331 329 328 329 328 325 324 323 323 321 318 314 314 318 319 318
337 336 336 335 335 336 337 336 336 336 336 337 336 334 333 331 330 332 335 335 333 333 334 334 332 330 328 330 332 330 327 327 329 329 330 331 330 331 331 330 328 328 329 328 328 329 328 328 327 326 327 328 329 329 330 332 333 333 332 333 333 334 334 334 333 333 333 333 333 330 328 329 330 328 325 324 323 322 322 321 319 320 323 325 324
336 336 336 336 335 335 336 337 336 336 336 336 335 334 333 330 330 333 335 333 332 333 332 332 332 330 328 329 330 329 328 328 329 330 330 330 331 331 330 329 329 328 328 328 328 327 328 329 327 327 327 327 329 330 330 331 331 331 332 333 332 333 333 333 333 333 332 332 332 330 327 328 330 328 326 325 324 322 322 323 324 325 326 327 327
334 335 336 336 335 334 335 337 336 336 336 335 334 335 334 331 330 332 333 332 332 333 332 332 332 329 327 329 329 328 328 328 328 329 329 329 330 330 329 329 329 329 327 327 328 326 327 329 329 328 328 328 330 329 331 332 331 330 331 331 330 330 330 332 333 332 331 330 330 329 327 327 328 328 327 326 325 323 323 325 325 325 327 328 328
332 333 334 335 336 335 334 336 337 337 336 335 334 334 333 331 329 330 331 331 332 333 333 333 331 329 328 328 328 328 328 328 327 328 328 328 329 329 328 327 328 328 327 327 328 326 325 328 329 329 328 328 329 328 330 331 331 330 328 327 328 328 329 331 331 331 330 327 327 327 327 326 326 328 328 327 327 325 323 323 324 325 326 327 328
330 332 332 334 336 335 335 336 336 337 336 335 335 334 333 332 329 329 330 332 334 334 333 333 332 329 327 327 328 327 328 328 328 328 328 327 327 327 328 328 327 328 327 327 327 325 324 325 326 328 329 329 329 328 328 328 328 328 326 327 328 328 330 331 331 329 327 325 325 327 326 326 326 327 327 326 327 327 324 321 321 324 326 327 327
330 332 332 334 336 336 335 336 335 336 336 335 335 333 333 332 330 330 330 332 334 334 333 334 335 331 328 327 327 327 328 328 328 328 328 328 328 328 328 328 328 328 328 326 326 325 324 324 324 326 329 330 328 327 327 327 328 327 327 329 329 329 331 332 331 328 325 324 325 326 327 327 327 327 326 326 326 327 326 323 321 321 323 325 325
331 333 333 333 336 337 337 336 335 336 336 335 334 332 332 332 330 330 330 333 334 334 334 335 335 332 329 328 327 327 328 328 328 328 328 329 329 328 328 327 328 328 327 326 326 325 324 325 325 326 328 330 328 327 327 327 328 329 329 330 330 330 331 331 330 326 323 324 325 327 328 327 328 327 326 326 326 326 326 325 323 322 321 321 322
335 335 334 334 336 337 336 335 335 336 335 334 333 332 332 331 330 330 331 333 334 334 335 335 333 331 329 328 327 327 327 328 328 327 328 329 329 328 328 328 328 327 326 327 326 324 324 326 327 326 326 329 329 328 328 327 328 329 330 330 329 329 330 330 330 327 324 324 325 327 328 327 328 328 327 326 326 326 325 326 326 326 323 318 320
336 335 335 334 335 336 335 334 335 335 334 334 333 332 331 330 331 331 332 332 333 334 333 332 330 329 329 328 327 327 327 328 328 327 328 329 330 329 328 328 328 327 326 327 325 323 325 327 328 327 326 327 328 328 328 328 329 330 330 329 329 329 330 330 330 329 327 327 327 328 329 329 329 328 328 327 328 327 326 326 326 327 325 320 318
336 335 335 335 335 336 336 335 335 335 334 333 333 331 330 331 331 332 332 332 333 333 331 330 329 329 329 327 326 327 327 328 328 328 329 330 330 329 328 328 328 328 327 327 325 324 327 328 328 327 327 327 328 328 328 329 330 330 330 330 329 330 330 330 330 329 329 329 329 329 329 329 329 329 328 327 327 327 327 327 327 327 327 325 322
338 337 337 336 336 336 336 335 335 334 333 333 332 331 330 332 332 331 331 332 333 332 330 329 328 328 328 327 327 327 327 328 327 327 328 328 328 327 327 327 327 327 328 327 326 325 327 328 327 327 328 328 328 328 327 329 330 330 330 330 329 329 329 330 329 329 330 329 329 329 328 328 329 328 328 326 327 328 327 327 327 327 328 328 327
339 338 338 337 337 337 336 334 333 333 333 333 332 332 331 331 331 331 331 333 332 332 331 329 328 328 328 328 328 327 327 326 326 326 327 327 326 327 327 327 327 327 328 328 327 326 327 328 327 327 328 328 327 327 327 328 330 330 330 329 328 328 328 329 329 329 329 328 329 329 328 328 328 328 328 327 327 327 326 326 326 325 325 326 326
340 339 338 337 337 336 335 334 332 332 333 333 331 332 332 331 331 331 331 332 333 333 331 329 328 328 329 329 328 326 324 324 325 325 326 326 326 328 328 327 327 327 328 327 327 328 328 327 327 327 327 327 327 327 327 328 330 330 329 330 329 328 329 329 329 328 328 328 328 328 327 327 327 328 328 327 327 326 325 326 325 324 324 325 325
340 339 338 337 337 336 334 333 332 332 333 332 331 332 332 331 331 331 331 333 333 332 330 329 329 330 330 329 326 324 322 322 323 323 325 326 327 328 328 328 327 327 327 327 328 329 329 328 328 327 326 326 327 326 326 327 329 329 328 329 328 328 329 329 329 328 327 328 328 327 326 327 327 328 327 327 326 326 326 326 326 326 325 325 326
340 339 338 338 337 336 334 333 333 334 333 332 332 332 332 332 332 331 331 331 331 330 330 329 329 330 329 327 325 323 321 321 322 322 323 324 326 327 328 328 327 326 327 327 328 330 330 330 328 327 325 326 328 327 326 327 329 329 328 329 327 327 329 329 329 327 327 327 327 326 327 326 326 326 327 327 326 326 326 326 326 326 325 325 325
340 339 339 338 337 336 335 334 335 335 334 333 333 333 333 333 331 331 331 330 330 331 331 329 330 329 328 328 325 322 320 321 321 321 321 322 324 326 327 328 327 326 325 325 327 328 330 331 330 329 328 328 328 329 328 328 329 329 327 328 327 328 329 328 328 327 327 327 326 326 327 326 326 326 326 326 325 325 325 325 325 324 324 324 324
339 339 339 337 337 336 335 334 335 335 334 334 334 333 334 333 331 332 332 331 331 331 331 330 329 328 327 328 325 321 321 322 321 320 320 322 324 325 325 326 327 326 325 325 325 326 330 331 330 330 330 329 329 329 330 329 329 329 327 327 327 328 329 328 328 328 328 328 326 326 327 326 326 325 325 325 325 324 324 323 323 323 324 324 325
339 339 339 337 336 336 335 333 334 334 334 334 334 333 333 332 330 330 330 332 333 331 330 328 326 327 327 325 325 323 322 322 321 320 320 321 322 322 323 325 325 325 326 326 325 325 328 329 329 330 330 329 328 329 330 329 328 329 327 327 328 329 329 329 329 328 328 328 327 326 326 326 325 324 324 324 323 323 322 322 323 323 324 324 324
338 338 337 336 335 334 333 333 332 333 334 333 333 334 333 331 330 329 328 331 332 330 327 322 319 324 326 324 325 325 323 322 322 321 320 320 319 319 320 322 323 325 326 327 326 324 325 327 328 328 328 329 329 328 329 329 328 329 328 327 328 328 328 328 329 329 328 328 327 327 326 326 325 323 323 323 322 322 322 322 323 323 323 322 322
336 335 335 335 334 333 332 332 330 331 333 333 334 333 331 331 330 329 329 330 330 327 322 315 314 323 326 325 325 324 323 322 321 319 318 318 319 319 320 321 323 325 325 326 326 324 324 324 325 326 327 329 329 328 328 328 328 328 328 328 328 328 328 328 328 328 328 327 327 327 326 325 324 323 323 322 322 322 322 322 322 322 321 320 320
Wind_Speed
20 28 28 26 24 22 20 18 17 16 16 17 19 19 20 20 20 20 20 20 19 18 16 15 15 14 13 12 12 13 13 14 14 14 15 16 17 17 16 16 16 16 17 17 17 17 19 20 20 20 19 19 20 21 21 21 21 22 21 20 21 20 18 18 18 18 18 18 18 17 16 16 16 17 16 17 18 17 18 17 16 17 17 16 16
24 30 29 27 25 23 21 19 18 16 16 16 18 19 20 20 21 21 21 20 20 19 17 16 15 14 13 12 12 12 12 13 13 13 14 16 16 16 16 16 16 17 18 17 18 19 20 20 20 20 20 20 22 22 22 22 22 23 22 20 20 20 19 19 18 18 18 17 17 17 16 15 15 16 16 17 18 17 17 17 16 16 16 15 14
26 30 29 27 25 23 21 20 18 17 16 16 17 18 19 19 20 21 21 21 20 19 17 16 15 14 12 11 11 11 11 11 12 13 13 14 15 15 16 16 17 18 18 17 18 19 19 19 20 20 20 21 23 24 23 23 23 23 23 21 20 20 20 19 19 19 18 17 16 15 14 14 13 14 14 15 16 16 16 16 15 14 14 13 12
26 30 29 27 25 23 21 20 18 17 16 15 16 17 18 19 20 21 21 21 20 19 17 16 15 14 12 11 11 11 11 11 12 13 13 13 14 15 16 17 17 18 18 18 18 18 18 19 19 18 18 20 24 26 25 24 23 24 24 22 20 19 19 19 19 19 19 18 16 14 13 12 12 12 12 13 14 14 14 14 13 13 12 11 11
28 31 29 28 25 23 21 20 18 17 16 15 15 15 17 18 19 20 21 21 19 19 17 16 14 13 12 11 10 10 10 11 12 14 14 14 13 14 15 17 18 18 18 18 18 18 18 18 18 18 19 20 24 26 26 25 24 24 24 24 22 20 19 18 20 20 20 19 16 14 12 10 10 10 11 11 11 12 12 12 12 11 10 10 11
27 29 30 28 26 23 21 20 19 17 16 14 13 14 15 17 18 20 20 20 19 19 17 15 14 13 12 11 10 10 10 11 13 14 15 14 14 13 14 16 18 18 17 18 18 18 17 17 18 19 20 21 23 25 26 26 25 24 24 24 23 22 20 18 19 19 20 20 16 13 11 9 8 8 9 9 9 9 9 10 10 9 9 10 10
25 27 29 28 26 23 21 19 19 17 16 14 13 13 14 16 17 19 19 19 18 18 17 15 14 13 13 12 11 10 10 11 12 14 15 15 14 14 14 16 17 17 17 17 17 17 16 17 18 19 20 22 23 24 25 26 25 25 25 25 24 23 21 19 18 16 18 17 12 12 10 9 8 7 8 7 6 6 7 7 7 7 7 8 9
25 26 26 26 26 24 21 19 18 17 16 14 13 13 13 14 16 18 18 18 18 17 16 16 15 14 13 11 11 11 11 12 12 13 16 16 15 15 15 16 17 16 17 16 17 17 16 17 19 20 20 22 23 23 24 25 26 25 25 25 25 24 23 21 17 16 17 14 11 12 10 10 9 7 8 7 5 5 5 4 4 5 6 6 7
25 24 22 24 26 25 21 20 19 17 16 14 13 12 12 13 15 17 18 17 17 17 17 16 15 13 12 12 13 13 13 13 12 12 15 16 16 15 15 17 16 15 16 16 17 17 17 18 19 20 20 21 22 22 23 24 25 25 25 25 25 25 23 22 22 18 15 13 12 11 10 10 8 7 7 8 6 6 5 5 5 4 4 5 6
24 22 20 21 26 25 21 20 19 18 16 14 13 12 12 13 15 16 17 17 17 17 16 15 14 13 13 15 15 15 14 12 11 9 11 15 16 16 17 17 16 15 16 16 17 17 18 19 19 19 19 20 21 21 22 23 24 24 25 25 25 25 24 25 25 18 13 13 13 13 13 12 8 7 8 8 7 6 5 5 5 4 4 4 4
23 21 19 21 26 24 21 20 19 18 16 15 14 13 13 13 15 16 17 17 17 17 16 15 14 13 15 16 15 14 13 11 8 6 9 14 16 18 18 17 17 16 16 15 16 17 18 19 19 19 19 19 19 20 20 22 23 24 24 24 25 25 25 28 23 14 14 15 17 17 16 14 11 11 12 10 8 7 6 5 5 4 3 3 4
22 21 19 22 26 23 21 20 20 19 17 16 15 14 14 14 15 16 17 17 17 17 16 16 16 15 16 16 14 13 12 9 7 6 9 13 15 17 17 17 17 16 16 15 15 17 18 19 19 18 18 19 19 19 19 20 22 23 24 24 25 24 26 28 19 13 15 16 18 16 13 14 15 16 15 13 11 9 8 7 7 6 5 5 5
21 20 20 24 26 22 21 20 20 19 18 16 15 15 14 14 15 16 17 17 17 16 16 17 17 17 16 14 13 12 11 10 9 8 9 12 14 17 17 16 16 15 15 14 15 18 19 19 19 18 18 18 18 19 19 20 21 22 23 23 24 23 25 27 18 13 16 15 15 12 13 16 17 18 17 15 14 13 12 11 10 9 8 8 7
21 20 21 26 25 21 20 19 19 19 17 16 15 15 15 14 15 16 16 17 17 16 16 16 16 17 16 14 13 12 12 12 11 9 8 10 14 17 18 15 15 15 15 14 14 17 19 19 18 18 18 18 18 18 18 19 20 21 21 21 22 22 25 25 18 15 17 16 14 12 14 16 17 17 16 15 14 14 13 12 11 10 10 10 10
20 20 22 25 24 21 20 19 19 18 17 16 15 15 15 14 14 15 15 16 17 16 16 15 15 15 14 13 13 13 14 14 12 10 7 8 12 18 18 15 15 15 15 13 14 17 19 19 18 18 17 17 17 17 18 18 19 20 20 20 20 20 23 20 15 16 16 16 14 11 12 15 16 16 15 15 14 13 13 12 12 12 13 13 12
19 21 23 24 24 21 20 19 18 18 17 16 15 15 14 14 14 14 15 16 17 16 16 15 14 13 13 13 13 14 14 14 12 10 8 7 9 14 17 16 15 15 14 14 14 15 17 18 18 17 17 16 16 15 16 16 17 18 18 19 18 18 22 19 14 15 15 13 12 10 12 15 16 15 15 14 14 13 12 13 13 13 13 13 13
19 21 23 24 23 22 20 19 18 18 17 16 15 14 14 14 13 13 14 15 16 16 15 15 14 13 14 14 14 14 15 15 13 11 10 10 9 10 15 16 14 14 14 14 14 13 13 15 16 16 16 15 15 14 13 13 14 16 16 17 18 17 19 20 16 14 14 14 12 9 10 14 15 15 14 14 13 13 13 13 12 13 13 13 13
20 21 22 23 23 22 21 19 19 18 18 17 15 14 14 14 13 13 14 15 16 16 15 15 15 14 14 14 14 15 15 15 14 12 12 11 10 9 11 13 13 13 13 14 13 12 11 11 12 13 14 14 13 12 11 11 11 13 14 16 17 16 17 19 15 14 16 15 10 9 10 12 14 14 13 13 13 13 13 12 12 12 12 12 12
20 21 22 23 23 21 20 20 20 19 18 17 16 15 14 13 12 13 14 15 16 15 15 15 15 15 14 14 14 15 16 15 15 14 13 12 11 9 9 10 11 11 12 13 13 12 11 10 10 10 11 12 12 11 9 9 9 10 12 14 16 15 16 16 12 12 14 12 9 9 11 12 13 12 12 12 12 12 12 12 12 12 12 12 12
20 21 22 22 23 21 20 21 20 19 19 17 17 17 15 13 13 13 14 15 15 16 16 16 16 16 15 15 15 15 15 14 15 14 14 13 13 11 9 8 10 11 12 13 13 13 12 11 9 8 8 9 10 10 9 8 8 8 9 11 12 12 13 13 11 11 11 11 10 9 10 12 12 12 11 11 11 11 10 10 10 11 11 11 11
20 22 21 21 22 20 20 20 21 20 19 18 18 17 15 14 13 14 14 15 16 17 17 17 16 16 16 16 16 16 15 14 14 14 14 14 14 13 11 9 9 10 12 13 13 12 12 10 9 7 6 6 7 8 8 8 8 7 7 7 8 8 10 12 11 10 10 10 9 9 10 11 11 11 11 10 10 10 9 9 9 9 9 9 10
19 21 21 21 21 20 20 20 22 22 20 19 18 17 16 15 15 15 15 16 18 18 18 18 17 17 16 16 16 16 15 14 13 13 14 13 13 13 11 10 8 9 11 13 13 13 12 11 10 8 6 5 5 5 6 7 8 7 6 5 6 7 8 10 9 9 9 8 8 8 9 10 10 10 10 9 9 9 9 8 8 8 8 8 8
19 19 19 21 21 20 20 20 22 22 21 20 19 18 17 16 16 16 16 18 19 19 18 18 17 17 16 15 15 15 15 15 13 12 13 13 12 11 10 9 9 9 11 12 13 13 12 11 10 9 8 6 5 4 4 5 5 6 5 4 5 6 7 7 8 9 8 6 7 7 8 10 9 8 8 8 7 7 7 7 8 8 7 7 7
20 19 18 20 20 19 20 19 21 23 22 21 20 19 18 17 16 16 17 19 19 19 18 17 16 16 16 16 15 14 15 16 15 13 13 12 12 11 10 9 9 9 10 11 11 12 12 11 11 10 8 6 5 4 4 4 4 4 4 4 5 5 5 6 7 8 8 6 6 7 7 8 8 8 7 6 6 6 6 6 7 7 7 6 6
19 18 18 19 19 19 19 19 21 23 22 22 20 20 19 18 18 18 18 19 19 19 18 17 16 16 16 16 15 15 14 15 15 14 13 12 12 11 10 8 8 9 9 9 10 10 9 9 10 9 7 6 5 6 6 5 4 4 4 4 5 4 4 5 5 7 7 5 5 6 6 6 7 7 6 5 5 4 5 5 5 6 6 6 6
19 17 18 19 19 20 20 20 21 22 21 21 20 20 20 18 19 19 18 19 19 19 19 18 18 18 17 15 14 14 14 14 14 13 12 12 12 11 10 9 9 9 9 8 9 9 8 8 7 6 7 7 7 7 7 6 5 5 4 5 6 5 5 5 4 5 4 3 5 4 4 5 5 6 6 5 4 4 4 4 4 5 5 5 6
19 17 18 19 20 20 20 19 19 20 19 19 20 20 19 18 18 17 18 19 18 18 19 18 18 18 17 15 15 14 14 14 14 12 12 11 12 12 11 11 10 9 9 8 8 8 8 8 7 7 6 6 6 7 7 7 6 5 5 6 6 6 6 5 4 4 3 2 3 3 3 4 4 5 5 4 3 3 3 4 4 4 5 5 5
18 17 17 19 20 20 20 19 19 20 19 18 20 20 19 18 17 17 17 18 17 17 17 17 17 17 16 15 15 15 14 14 13 11 10 11 12 13 12 12 12 10 9 8 7 7 7 6 6 6 6 5 6 6 6 6 7 6 6 6 6 6 6 6 5 5 5 4 3 2 2 3 3 4 4 4 4 3 3 4 4 4 5 5 5
17 18 17 18 21 21 21 20 19 19 19 20 20 20 20 18 18 18 18 17 15 14 15 15 15 16 16 15 15 15 14 13 12 11 10 11 11 11 11 11 11 11 9 8 7 7 6 6 5 5 6 5 5 6 6 6 6 6 6 6 6 6 5 5 5 5 6 5 5 2 0 2 3 4 5 5 5 5 4 5 5 5 6 6 5
17 18 16 17 20 20 21 21 19 19 20 21 21 21 20 18 18 18 18 17 15 15 15 14 15 16 16 15 15 15 14 13 12 12 11 10 9 8 7 8 9 9 8 8 8 8 7 6 5 5 5 5 5 6 6 5 5 6 6 6 6 6 5 5 5 6 6 6 6 4 1 1 3 4 5 6 6 6 6 6 7 8 8 7 7
17 17 16 17 19 19 21 22 21 22 21 19 20 21 20 18 18 18 17 16 16 17 15 15 16 16 16 16 15 14 13 12 12 11 11 9 9 7 6 6 6 7 7 7 8 8 7 7 7 7 7 6 6 5 6 6 5 5 5 6 7 6 6 6 6 6 7 7 7 6 3 2 2 2 4 6 6 6 6 7 9 10 10 10 10
18 16 17 18 18 19 21 22 22 23 20 18 20 21 19 18 19 18 16 17 18 17 16 16 17 17 17 17 16 15 13 12 11 11 11 10 8 8 7 6 6 6 6 6 7 7 7 7 8 8 7 6 5 5 5 6 6 5 5 5 6 6 6 7 7 8 9 8 8 7 6 4 3 2 4 7 7 7 7 8 10 10 9 9 11
19 16 17 18 20 21 21 21 22 22 21 20 21 20 20 19 19 18 17 18 18 17 17 17 17 17 17 17 16 15 13 12 11 11 11 10 8 8 8 7 6 7 7 7 6 7 7 7 7 8 7 6 5 5 4 5 6 7 6 5 7 7 8 8 8 10 10 9 7 7 6 5 4 2 4 7 7 7 7 8 9 8 7 7 8
19 19 18 19 21 22 21 22 22 21 22 22 21 21 20 19 19 18 18 18 18 17 17 17 17 17 16 16 15 14 13 12 11 11 11 10 9 9 9 9 8 7 8 7 6 6 6 6 6 6 6 6 5 5 5 4 4 6 7 8 10 11 10 9 9 9 8 7 6 5 6 5 5 5 4 6 6 6 7 7 7 6 6 5 6
21 23 23 22 23 23 22 23 23 21 22 22 22 21 20 19 19 19 18 18 17 16 16 17 17 17 16 16 15 14 13 12 12 12 11 10 10 10 10 10 9 8 8 7 7 7 7 7 7 6 5 6 6 6 6 6 6 7 10 10 10 10 9 8 9 7 4 4 4 5 8 8 8 8 7 5 4 5 6 5 5 5 6 5 6
25 26 26 25 23 23 23 23 24 22 21 21 21 20 19 19 19 18 19 18 16 16 17 16 16 17 17 16 15 14 12 12 12 12 11 10 10 10 10 10 8 8 8 8 8 8 7 8 8 7 5 5 6 6 7 8 8 8 9 8 7 8 7 6 7 5 4 4 5 6 8 8 8 8 8 7 5 4 5 5 5 5 6 6 6
27 28 28 27 24 23 23 22 22 21 20 20 20 20 18 18 18 18 19 17 16 17 16 15 15 17 17 16 15 14 13 12 12 12 11 10 9 10 11 10 9 8 8 8 8 7 6 6 7 7 6 5 6 7 7 7 6 6 7 7 6 6 5 5 5 6 5 5 5 5 6 6 7 7 7 7 7 5 4 5 5 5 5 6 6
27 28 28 27 23 20 20 21 23 22 21 21 21 20 19 19 18 19 19 17 16 16 15 14 15 16 16 15 15 14 13 13 12 12 11 11 10 10 11 10 9 8 8 8 8 7 6 5 6 8 7 5 6 6 6 7 6 5 6 6 5 5 5 5 5 7 6 6 5 5 5 6 6 6 6 6 7 7 6 6 6 5 4 5 6
24 24 24 24 21 19 19 22 25 23 22 22 21 21 21 20 19 19 18 17 16 16 15 15 15 16 15 15 15 14 13 13 12 12 11 10 10 10 9 9 9 8 7 8 8 8 7 6 6 8 8 6 5 6 6 7 7 6 6 6 6 5 5 4 4 7 7 6 6 6 5 6 6 6 5 4 5 6 7 5 5 5 4 4 6
22 22 22 24 22 22 22 22 25 23 22 22 22 22 22 21 20 18 17 17 16 16 16 16 16 16 15 15 15 14 13 12 12 11 10 9 9 10 9 8 8 7 7 8 8 8 7 7 6 6 8 7 6 6 6 6 6 6 6 6 7 5 5 5 4 5 6 6 6 5 5 5 5 4 4 3 3 4 6 5 5 5 5 4 5
21 21 23 25 25 24 22 22 24 23 22 22 23 23 22 22 20 19 18 18 16 16 17 16 16 15 15 15 14 12 11 11 11 11 10 9 9 8 8 8 8 8 8 8 8 8 7 7 7 6 6 7 6 7 8 7 7 7 7 6 7 7 7 6 4 4 4 4 5 5 6 6 5 4 4 4 3 3 4 5 5 5 6 5 3
21 21 23 24 25 25 23 24 25 24 23 23 23 23 23 22 20 19 19 17 17 17 16 15 15 15 14 14 12 11 10 10 10 11 10 9 8 8 8 9 9 9 8 7 7 8 8 7 7 7 6 7 7 7 8 7 6 7 7 7 7 7 7 6 4 5 4 4 4 5 5 5 5 5 4 4 3 2 3 4 5 5 5 4 3
21 22 23 23 25 26 26 26 26 23 23 24 23 23 24 22 20 20 19 17 17 16 15 14 14 14 13 12 11 11 11 10 10 10 9 9 9 8 9 10 10 9 7 7 7 8 8 7 7 7 7 7 8 8 9 8 6 6 8 8 7 8 7 5 5 5 4 4 5 5 5 4 4 3 3 3 2 1 1 3 4 3 4 3 2
21 22 23 26 28 28 28 27 25 23 23 25 24 24 23 21 20 21 20 17 16 16 14 14 14 13 12 12 11 11 11 10 9 10 9 9 9 8 8 9 8 8 7 7 8 8 9 9 8 8 8 8 8 8 9 8 6 8 7 5 5 5 5 6 5 4 4 3 4 5 5 4 3 3 3 3 3 2 1 2 2 2 2 1 1
21 23 26 29 29 28 27 25 24 24 24 25 25 23 22 22 21 21 21 19 17 17 16 15 14 12 12 12 11 11 10 10 10 10 9 9 9 9 8 8 7 7 7 8 7 8 8 9 9 9 9 8 7 7 8 8 7 8 5 2 4 5 4 7 6 4 5 3 4 5 4 4 4 4 3 2 3 3 2 2 1 1 1 1 2
22 23 27 28 27 26 24 24 24 23 23 23 24 24 23 23 23 23 23 22 20 17 16 16 15 12 12 12 12 11 11 11 11 10 9 9 9 9 8 8 7 7 7 8 8 8 8 8 9 9 8 8 7 6 7 7 7 7 5 4 3 2 3 8 6 4 5 4 5 6 6 6 5 4 3 2 2 3 3 3 2 2 1 1 2
22 23 27 28 28 27 24 23 24 23 21 21 23 25 23 23 23 23 22 21 19 17 16 15 13 12 11 11 11 12 12 12 12 11 10 10 9 9 8 8 7 7 7 7 8 8 8 8 7 7 7 8 7 6 6 7 6 7 7 5 1 1 3 6 4 4 6 6 6 7 8 6 5 5 4 3 3 3 4 3 3 2 2 3 3
21 22 26 28 30 29 25 21 21 22 21 21 23 24 22 23 23 22 20 19 17 16 15 13 12 11 11 11 11 13 13 12 12 11 10 9 8 8 8 8 8 7 7 7 7 8 8 8 8 8 7 8 8 7 6 7 6 7 8 6 2 2 3 3 3 3 5 7 8 8 7 5 4 5 5 5 5 5 5 5 5 4 5 6 7
20 20 22 25 28 27 23 19 17 19 20 21 23 23 22 23 22 22 21 18 16 15 15 13 13 12 12 12 11 11 13 13 12 12 11 10 9 8 8 8 8 7 7 7 7 7 8 8 8 8 8 8 8 8 7 8 8 7 8 6 5 3 3 3 3 2 3 8 9 8 6 4 4 5 5 6 6 6 6 6 6 6 6 8 7
19 19 17 19 24 25 22 16 12 17 20 22 24 23 22 22 23 23 22 18 17 17 16 14 14 13 12 12 11 10 11 12 12 13 12 11 10 9 8 8 8 8 8 7 7 7 8 8 8 7 8 7 7 8 8 8 8 8 6 6 6 6 5 4 3 3 3 5 8 8 6 5 5 6 6 6 6 6 6 6 6 6 6 7 6
16 18 14 11 13 17 18 13 10 16 21 23 23 21 21 22 23 23 21 19 18 17 17 16 16 15 13 12 12 12 12 11 12 13 13 11 10 10 9 9 8 8 7 7 7 8 8 7 7 7 7 7 6 7 7 7 6 7 7 6 6 6 5 4 5 5 3 4 7 8 7 7 7 7 6 7 7 6 6 6 6 7 8 8 8
Wind_Direction
174 175 166 164 165 166 163 158 155 153 156 158 160 157 158 159 161 160 159 158 157 157 156 154 148 145 141 135 129 125 123 123 128 130 133 131 129 129 127 124 122 119 116 117 118 114 106 102 101 101 101 98 95 93 91 88 88 92 97 103 107 110 108 105 107 107 106 106 107 108 105 102 98 96 99 103 104 101 101 97 95 95 91 89 88
163 172 166 165 166 165 164 158 156 154 155 158 162 160 158 160 161 161 161 161 160 160 158 158 153 150 145 139 134 129 128 128 130 129 132 133 131 130 129 128 126 120 117 117 115 110 105 106 106 104 101 98 97 95 92 90 89 91 95 100 106 111 111 109 110 110 108 107 107 108 108 105 98 95 96 97 99 100 99 97 96 94 91 89 87
157 169 165 164 166 165 164 160 157 154 154 153 159 163 163 162 162 163 164 164 163 162 160 161 157 153 150 145 139 136 136 131 131 132 134 136 136 134 130 127 123 120 119 116 111 109 108 110 110 106 100 98 97 94 92 90 89 90 92 96 101 107 110 111 112 110 106 103 103 105 107 108 101 95 93 93 97 99 96 95 95 92 91 90 89
156 166 164 164 165 165 164 161 158 155 153 151 154 159 165 166 165 165 166 167 166 164 162 163 160 156 153 150 145 142 142 136 132 134 136 136 134 133 130 128 125 124 122 119 114 113 113 113 114 107 102 100 96 92 90 89 89 88 89 93 98 106 109 111 112 109 104 99 99 101 104 110 109 104 100 98 99 98 94 94 94 91 90 90 88
157 165 164 162 164 165 164 162 158 155 153 151 152 154 161 167 169 169 169 170 168 166 164 165 163 158 154 152 148 145 145 140 137 134 134 130 127 130 133 132 129 127 124 121 118 116 116 119 117 108 106 103 95 92 91 89 88 87 88 89 93 103 109 112 114 112 103 92 87 92 101 112 116 115 111 109 110 106 101 97 94 92 90 88 84
158 164 162 162 163 164 165 163 159 156 153 150 149 149 155 163 170 172 173 173 171 168 165 165 162 157 152 148 144 142 142 142 141 137 134 128 127 132 138 138 133 130 126 122 118 116 117 120 117 110 107 103 96 93 92 90 87 87 87 88 89 94 103 111 116 116 104 92 86 90 94 103 111 121 129 127 125 117 106 96 87 87 88 90 88
156 161 160 162 162 162 164 163 159 156 153 150 146 145 151 158 168 173 174 173 172 170 165 162 158 153 148 145 142 141 140 140 142 141 135 131 138 143 145 142 135 130 126 121 119 117 115 116 117 113 108 103 98 95 93 91 89 87 86 87 87 89 96 103 113 116 102 95 98 100 97 102 104 117 146 146 137 122 100 91 83 86 90 91 90
155 156 157 161 161 161 162 161 159 157 152 150 146 143 147 154 163 171 174 173 171 168 163 160 156 153 152 150 147 143 139 137 140 144 141 143 153 153 149 143 135 129 127 125 123 121 117 116 116 113 108 104 100 98 96 93 91 88 87 87 87 88 90 95 103 101 92 99 107 103 100 107 106 114 148 155 148 138 117 109 106 100 93 85 80
154 152 154 160 161 161 160 160 159 156 153 150 146 142 143 150 158 167 172 172 169 165 162 160 159 158 160 156 149 144 139 138 141 150 151 153 157 155 151 141 134 133 132 132 128 125 122 118 117 114 109 106 103 101 99 96 93 91 89 88 89 89 89 93 93 87 85 98 102 101 102 104 106 114 141 156 154 147 142 127 123 117 95 80 70
152 153 154 158 162 161 160 159 159 156 153 151 146 140 140 147 155 164 170 170 168 164 162 161 161 162 161 153 148 146 142 143 144 156 162 158 158 154 147 138 137 141 138 136 132 131 126 122 120 115 110 108 105 104 102 99 97 93 91 89 89 90 92 90 84 82 86 93 96 103 109 114 122 120 123 137 144 144 144 118 109 107 88 75 68
153 156 155 158 162 161 160 160 160 158 155 153 147 140 139 145 154 162 167 167 166 162 161 161 163 162 157 151 148 147 144 148 150 166 172 162 159 152 145 142 146 147 142 139 137 136 130 126 123 117 113 111 109 106 104 102 100 97 94 91 90 89 90 87 82 85 90 90 86 82 88 99 106 105 105 112 123 133 136 118 105 98 82 71 69
155 155 156 159 161 161 161 161 162 162 158 154 148 144 140 143 152 160 164 163 162 160 160 160 161 160 157 155 154 150 145 151 156 165 172 165 160 152 148 149 150 148 145 146 144 139 133 130 126 121 118 114 112 109 106 104 103 100 98 95 93 91 88 87 86 89 90 86 81 77 80 86 87 88 91 97 104 109 111 108 105 102 97 91 87
155 154 160 160 160 160 161 162 164 164 159 155 152 149 143 145 150 157 162 160 158 159 159 157 160 163 162 161 159 155 150 153 154 154 166 167 159 153 150 147 148 149 150 152 148 141 136 134 130 127 123 117 114 112 110 107 105 102 100 98 96 94 90 90 93 93 92 89 87 94 96 90 86 85 85 88 91 94 95 95 98 101 103 102 98
156 158 162 161 159 158 161 164 165 164 159 157 155 152 149 148 150 155 158 157 157 159 160 157 160 163 162 161 158 156 152 151 151 154 168 168 159 154 149 147 152 155 156 157 153 145 139 137 135 131 127 120 116 116 114 110 108 104 101 100 97 97 92 91 95 96 94 93 90 91 91 91 90 88 88 87 88 89 89 89 90 92 96 99 99
160 161 162 162 159 156 162 165 164 163 159 160 158 155 152 150 149 151 153 154 157 161 162 158 158 159 157 159 158 156 152 149 150 151 157 162 161 158 151 152 159 161 161 161 159 150 143 140 137 134 130 124 120 120 117 113 110 107 104 102 100 101 96 91 94 96 93 91 89 90 93 94 92 91 91 90 90 88 87 86 85 86 87 89 91
161 161 163 164 160 157 160 162 163 162 161 162 159 156 152 150 150 149 152 154 158 162 163 161 159 158 159 163 163 161 156 151 152 148 142 144 153 161 159 156 161 166 166 165 162 153 147 144 138 135 132 128 125 122 120 116 112 109 107 104 102 101 101 101 100 95 93 91 89 92 96 95 92 92 92 92 93 91 89 87 85 84 84 85 85
161 162 164 165 163 161 158 159 162 162 163 163 159 156 152 151 150 150 154 156 159 162 164 165 163 163 165 167 167 166 161 154 153 150 146 146 145 158 165 164 166 173 174 170 164 157 153 147 141 138 134 132 129 126 123 118 116 112 109 108 104 100 104 106 103 102 104 99 94 98 99 97 97 94 94 95 95 93 90 89 87 85 84 84 84
162 164 165 164 165 164 159 161 161 160 160 158 157 155 153 152 149 152 156 158 159 159 162 164 164 165 164 164 164 162 159 153 152 151 150 152 155 159 168 175 179 181 180 172 167 164 162 156 148 144 138 135 132 129 125 120 120 115 112 111 105 104 106 101 98 108 109 99 100 117 110 100 98 96 96 96 96 95 93 93 92 89 86 85 84
163 166 166 165 167 165 162 163 160 162 161 157 159 156 154 151 149 155 159 161 159 160 162 162 162 161 158 154 151 150 150 150 149 148 149 149 152 158 166 182 191 192 187 177 175 175 171 171 165 154 145 140 135 132 129 123 121 120 117 112 110 110 103 96 94 102 103 102 113 125 115 105 99 95 94 92 93 94 95 97 96 94 91 88 86
166 168 167 166 167 164 164 165 163 167 166 163 162 156 154 151 151 157 160 161 161 162 159 157 155 151 148 143 138 138 140 145 146 146 150 148 146 151 157 173 194 200 198 189 186 188 183 183 183 172 158 148 140 136 136 131 125 123 117 114 115 110 100 100 102 100 103 109 116 123 118 109 102 98 93 89 88 87 89 91 93 95 96 95 92
170 171 170 167 168 166 165 168 168 170 169 167 163 157 153 150 152 156 159 162 163 161 156 152 147 143 142 140 137 136 136 142 146 150 155 154 153 156 157 167 191 203 206 201 198 201 197 194 195 191 178 164 150 141 141 138 132 126 117 116 113 104 106 108 102 97 97 100 106 118 118 112 110 106 101 95 91 88 86 86 87 89 92 94 94
171 172 172 172 172 170 169 172 174 173 171 170 168 163 156 152 153 154 159 163 162 161 157 152 147 143 142 141 140 139 139 142 146 153 157 158 161 164 167 176 195 205 209 208 210 212 210 209 208 208 202 192 173 152 148 145 139 136 127 118 106 109 122 114 103 97 91 95 103 109 111 109 111 110 108 105 99 94 90 86 83 81 82 84 87
172 174 174 175 175 174 173 173 177 176 172 172 173 169 160 157 155 157 165 168 165 162 159 155 150 145 144 144 143 142 142 142 147 152 154 158 165 170 176 184 195 200 204 207 213 217 218 220 217 219 220 218 210 186 170 164 153 147 140 128 118 127 133 117 111 105 96 102 100 101 104 101 102 106 109 108 104 101 96 89 83 78 78 77 79
174 175 175 177 176 177 175 174 178 178 175 175 175 172 164 160 159 164 172 172 168 164 162 158 152 146 146 148 147 148 147 147 149 149 151 154 159 165 168 173 182 189 196 204 213 218 222 226 226 228 226 220 218 200 183 181 177 169 155 143 143 147 136 118 116 111 112 116 101 99 102 100 101 103 106 109 110 106 99 93 88 82 76 71 69
175 176 176 177 177 177 178 178 177 175 176 177 177 173 165 162 166 173 176 174 171 168 168 162 154 151 149 149 151 152 150 151 149 147 152 151 151 152 152 157 165 173 182 192 205 210 211 222 228 227 212 196 197 193 192 199 202 197 181 170 169 161 137 126 123 118 121 119 99 100 103 109 114 109 108 110 112 108 101 98 94 87 77 68 63
176 179 178 178 180 179 180 180 175 172 176 178 177 173 165 165 171 178 179 177 175 175 172 163 158 155 151 151 155 153 153 155 152 151 154 152 154 153 154 157 155 159 163 174 190 192 194 203 202 194 191 185 190 196 200 206 209 214 198 184 178 162 145 140 133 127 133 111 95 100 98 106 118 114 107 103 106 109 107 99 91 85 77 67 61
177 179 179 180 182 180 179 177 171 170 174 176 176 171 166 169 174 180 181 179 178 178 170 161 160 157 155 158 157 156 159 160 156 156 155 155 160 160 162 162 158 160 160 165 175 178 187 193 180 172 179 176 185 197 204 205 201 209 203 187 179 167 154 151 148 142 159 147 119 111 88 88 98 98 91 93 100 102 109 99 89 85 78 69 61
177 175 178 184 184 179 176 173 173 173 172 175 174 169 170 174 177 180 182 180 180 179 168 163 162 158 159 162 162 162 161 160 157 156 159 163 165 165 168 167 166 171 171 166 163 164 170 178 171 159 156 161 180 183 189 202 196 196 197 188 180 172 163 159 164 158 160 172 162 130 82 88 83 74 72 79 87 95 108 104 98 91 79 71 62
180 178 181 186 185 182 180 176 177 176 175 178 175 171 175 177 178 181 181 178 179 179 170 166 164 159 161 165 168 167 160 159 159 160 165 167 165 166 171 171 170 172 174 168 162 166 167 172 165 149 151 158 171 171 173 188 189 188 190 189 184 180 177 172 177 168 156 164 176 177 106 106 87 62 60 67 76 88 98 103 99 90 80 72 63
184 185 186 189 188 187 187 184 179 178 182 182 178 177 178 177 178 182 179 173 177 179 170 167 165 162 164 167 170 166 162 164 164 164 166 166 164 168 175 175 173 169 169 171 171 173 174 176 162 153 162 162 168 169 164 166 173 183 184 185 188 187 188 184 181 173 161 165 180 179 147 123 99 67 60 66 75 83 87 94 95 90 86 80 73
187 189 188 192 194 191 193 193 188 187 188 182 182 183 178 176 180 182 177 173 177 176 169 170 169 167 168 169 170 167 166 168 168 168 168 170 169 171 181 183 176 166 165 178 180 176 178 182 179 177 178 176 177 174 167 158 160 177 178 184 189 188 189 188 182 178 175 176 180 169 148 150 138 91 68 72 76 84 84 91 100 99 93 85 76
183 190 193 195 199 197 197 197 194 195 192 182 185 185 178 180 184 180 176 177 177 173 170 172 172 172 173 172 172 170 170 171 173 175 175 175 175 179 185 189 188 177 177 188 189 184 185 192 198 194 187 185 183 186 181 157 158 175 177 184 183 183 191 192 190 189 186 182 181 166 157 171 171 131 75 78 74 78 86 94 103 105 98 86 75
180 190 199 201 204 202 202 200 195 196 194 189 187 185 181 185 186 182 180 180 177 173 173 173 173 176 176 175 175 173 174 176 180 183 183 181 182 190 189 190 198 195 191 192 196 193 190 197 203 200 195 194 194 199 185 160 178 185 175 182 186 193 197 194 197 200 192 181 179 161 154 180 181 145 89 87 78 78 90 97 102 108 104 91 81
190 197 203 208 208 204 203 203 198 194 194 194 189 185 184 186 186 185 184 182 179 175 174 174 175 177 176 176 177 178 181 183 187 190 189 188 190 198 198 197 203 208 200 189 195 199 194 195 194 200 201 194 196 193 168 151 173 183 187 199 204 210 205 196 200 206 197 177 175 157 151 182 190 169 127 99 88 87 99 108 112 115 110 102 96
198 200 205 211 210 204 204 203 199 193 193 195 192 189 186 185 187 187 186 184 182 177 176 178 177 177 177 178 180 183 187 190 194 195 193 195 200 207 210 211 214 217 207 189 198 204 199 196 186 190 198 191 195 192 181 173 176 195 208 209 209 212 204 199 200 194 185 178 185 174 165 181 193 182 161 142 121 97 103 123 132 126 119 112 110
191 200 209 213 208 204 204 203 200 195 194 194 192 192 188 186 188 190 189 185 182 179 180 180 178 179 179 182 186 188 190 191 195 199 202 205 210 216 219 223 223 223 214 200 206 204 200 204 191 185 189 190 193 196 201 200 204 212 209 199 199 202 191 197 197 160 153 195 201 187 173 178 187 180 167 164 160 120 97 111 124 129 130 122 118
190 204 212 212 207 203 202 204 203 197 196 196 193 193 191 188 189 191 191 187 183 182 181 180 181 183 183 188 192 193 195 195 197 201 205 208 210 217 222 223 219 217 213 202 202 198 195 210 198 187 185 187 191 196 200 198 209 209 187 180 186 187 171 185 184 130 142 191 188 180 174 173 175 170 170 168 159 138 100 90 95 112 131 131 124
197 207 211 210 206 200 201 206 205 199 199 198 195 194 193 192 192 192 193 189 184 182 181 182 185 186 188 193 195 197 199 197 200 201 205 207 206 215 224 221 213 209 206 194 195 190 184 198 201 195 186 182 191 196 197 191 195 189 173 171 170 168 162 175 162 127 151 183 172 180 181 179 174 166 177 173 151 137 116 91 79 86 118 138 131
203 206 206 206 203 203 207 209 205 202 203 200 195 196 196 195 194 193 194 189 184 184 182 184 188 188 192 196 196 197 198 197 201 201 203 207 208 215 220 215 209 203 196 190 194 187 176 186 202 197 183 177 186 187 194 196 188 164 153 161 164 165 163 163 148 139 163 182 179 188 182 180 177 167 178 163 134 134 129 109 90 95 104 134 138
204 205 202 203 202 205 208 206 203 204 206 201 196 198 198 196 195 196 196 187 182 185 184 186 189 189 192 197 198 200 200 200 201 198 199 202 207 212 209 206 204 197 190 190 194 182 172 182 193 196 183 178 181 177 184 185 164 140 138 154 157 150 141 138 138 143 156 172 179 178 165 165 163 167 179 149 123 128 128 118 111 109 102 117 139
204 204 201 202 203 204 204 202 202 204 204 200 198 199 198 196 195 196 196 186 180 183 185 188 190 190 194 199 200 200 201 201 197 192 194 196 202 206 201 198 198 193 190 193 194 177 171 185 188 185 179 175 175 175 176 163 144 138 135 139 137 129 127 128 132 136 141 158 168 165 159 158 161 178 184 158 143 131 129 125 116 109 96 95 112
204 205 201 200 202 204 205 202 201 203 202 200 199 199 198 198 198 197 192 184 181 183 187 190 191 192 196 200 199 194 193 193 192 189 190 194 197 200 197 193 194 192 187 191 192 175 173 189 190 178 174 176 177 179 175 159 154 157 149 146 139 128 124 123 131 139 140 145 155 165 167 168 173 185 191 174 154 140 148 129 111 103 98 96 95
206 206 199 198 201 204 205 205 205 203 201 200 198 199 200 199 201 197 188 183 181 180 186 191 191 193 193 193 192 187 186 186 188 188 188 191 191 192 195 193 191 185 180 191 189 175 175 185 188 175 174 181 179 183 178 164 170 175 169 170 158 140 130 133 152 152 142 139 141 153 173 193 191 182 185 168 141 137 156 117 103 100 102 110 133
205 201 196 200 203 203 203 207 209 205 202 200 198 201 201 196 199 194 185 182 179 176 183 189 188 191 187 185 186 182 183 184 184 188 189 189 184 185 188 190 191 180 180 196 188 177 183 186 185 178 182 188 183 187 184 173 175 182 187 186 174 174 159 158 174 151 128 127 125 138 166 189 184 178 187 175 174 193 184 131 109 102 107 117 171
205 199 198 203 206 205 204 206 209 207 205 201 197 199 198 192 192 190 184 182 179 178 183 186 183 184 183 182 183 180 181 181 181 185 187 184 182 183 183 187 193 185 190 200 186 180 187 186 187 186 188 188 182 189 191 181 177 184 193 166 182 214 179 163 172 140 125 120 106 122 151 155 147 159 171 181 204 209 208 204 181 166 164 152 176
206 201 200 203 202 205 206 204 205 207 204 198 196 198 196 192 191 190 188 185 182 181 185 185 181 182 183 180 179 178 178 177 177 182 183 181 182 183 182 185 187 185 195 198 184 181 185 185 189 189 186 184 180 186 192 187 183 190 190 164 187 254 141 165 175 142 131 112 100 116 132 139 135 132 137 156 192 188 191 202 188 181 181 157 166
208 203 203 201 198 201 205 203 203 205 200 195 198 199 194 192 192 192 192 187 180 181 186 184 180 180 179 176 175 173 173 173 175 179 180 178 180 181 181 182 181 183 193 197 192 187 182 183 187 185 186 188 183 180 184 183 184 194 187 166 173 41 129 176 181 146 137 120 113 119 118 119 121 128 142 151 158 159 169 169 145 127 118 113 101
210 205 207 201 194 199 204 201 203 204 198 196 199 199 196 194 192 191 189 181 175 178 181 177 174 174 172 171 173 172 169 171 174 176 177 175 177 179 178 179 180 181 185 192 197 192 180 181 183 181 185 189 185 179 182 182 179 193 193 175 162 142 147 180 185 168 148 135 133 129 121 116 130 158 166 159 156 151 153 147 126 117 125 120 108
215 210 211 205 198 203 208 204 206 204 197 197 199 199 201 198 193 191 185 174 171 175 174 171 168 166 169 169 168 170 170 170 174 173 173 174 176 179 179 177 177 178 181 183 189 192 186 184 183 181 181 183 184 179 181 190 184 186 198 184 168 175 171 173 183 186 160 149 147 144 143 140 146 161 159 155 153 143 138 126 109 117 129 117 109
213 205 206 202 194 197 200 195 202 210 202 198 197 199 202 198 194 194 186 173 173 173 171 173 170 163 165 166 162 168 171 172 176 174 173 175 177 179 178 178 178 179 181 179 179 186 188 186 183 180 178 174 180 182 183 195 189 179 187 181 172 180 177 168 173 167 162 153 142 142 151 145 131 135 135 131 128 122 115 103 101 115 116 102 100
199 196 201 205 192 192 194 181 188 215 212 200 195 197 201 200 197 193 184 177 179 179 177 177 171 162 162 166 166 170 175 177 176 174 174 174 173 175 175 177 180 179 181 178 177 181 182 185 180 173 172 167 174 187 187 196 194 177 178 184 180 178 169 167 172 166 161 145 137 139 142 136 126 125 120 103 99 102 99 95 102 111 110 110 117